DW5444 Weather Reports


time (UTC)temp
F
wind
direction
speed
knots
gust
knots
rain 1hr
in
rain 24hr
in
rain mn
in
humidity
%
barometer
mb
20260507154502 56 250 7.8 12.2 0.00 0.00 0.00 59 1014.8
20260507153104 55 251 7.8 12.2 0.00 0.00 0.00 61 1015.0
20260507151555 55 264 7.0 12.2 0.00 0.00 0.00 65 1015.0
20260507150054 54 254 4.3 7.8 0.00 0.00 0.00 68 1015.1
20260507144554 54 243 5.2 8.7 0.00 0.00 0.00 67 1015.0
20260507143051 53 254 1.7 5.2 0.00 0.00 0.00 70 1014.9
20260507141550 51 211 4.3 6.1 0.00 0.00 0.00 71 1014.6
20260507134550 50 239 2.6 4.3 0.00 0.00 0.00 72 1014.5
20260507133047 50 225 2.6 5.2 0.00 0.00 0.00 71 1014.4
20260507131547 50 263 5.2 10.4 0.00 0.00 0.00 68 1014.4
20260507130058 50 216 4.3 9.6 0.00 0.00 0.00 67 1014.3
20260507124559 51 236 6.1 11.3 0.00 0.00 0.00 66 1014.1
20260507123042 51 239 7.0 9.6 0.00 0.00 0.00 66 1013.8
20260507121539 50 217 4.3 7.8 0.00 0.00 0.00 66 1013.8
20260507120038 51 216 3.5 8.7 0.00 0.00 0.00 65 1013.8
20260507114539 51 204 3.5 7.8 0.00 0.00 0.00 66 1013.7
20260507113035 51 230 5.2 12.2 0.00 0.00 0.00 66 1014.0
20260507111531 51 189 4.3 7.8 0.00 0.00 0.00 65 1014.0
20260507110033 52 241 5.2 8.7 0.00 0.00 0.00 64 1014.1
20260507104528 52 213 4.3 7.8 0.00 0.00 0.00 64 1014.1
20260507103025 52 176 3.5 9.6 0.00 0.00 0.00 63 1014.2
20260507101525 53 215 2.6 7.8 0.00 0.00 0.00 62 1014.4
20260507100025 53 209 5.2 9.6 0.00 0.00 0.00 61 1014.3
20260507094520 53 223 2.6 7.8 0.00 0.00 0.00 62 1014.4
20260507093026 53 170 1.7 6.1 0.00 0.00 0.00 62 1014.5
20260507091531 54 244 4.3 9.6 0.00 0.00 0.00 60 1014.5
20260507090017 54 229 4.3 8.7 0.00 0.00 0.00 59 1014.4
20260507084520 54 213 4.3 9.6 0.00 0.00 0.00 59 1014.5
20260507083014 52 198 1.7 4.3 0.00 0.00 0.00 61 1014.7
20260507081512 53 96 1.7 7.8 0.00 0.00 0.00 57 1014.8
20260507080011 54 263 5.2 11.3 0.00 0.00 0.00 56 1014.3
20260507074507 53 205 5.2 10.4 0.00 0.00 0.00 57 1014.5
20260507073005 52 170 2.6 6.1 0.00 0.00 0.00 59 1014.7
20260507071503 53 176 1.7 4.3 0.00 0.00 0.00 57 1014.8
20260507070115 53 175 2.6 4.3 0.00 0.00 0.00 56 1014.9
20260507064610 52 156 1.7 3.5 0.00 0.00 0.00 57 1014.7
20260507063100 54 154 2.6 3.5 0.00 0.00 0.00 55 1014.7
20260507061556 55 216 1.7 5.2 0.00 0.00 0.00 53 1014.8
20260507060054 56 244 3.5 6.1 0.00 0.00 0.00 52 1014.7
20260507054555 56 236 2.6 7.0 0.00 0.00 0.00 52 1014.6
20260507053053 57 230 4.3 10.4 0.00 0.00 0.00 51 1014.6
20260507051555 57 206 3.5 7.8 0.00 0.00 0.00 51 1014.5
20260507050051 58 263 6.1 10.4 0.00 0.00 0.00 48 1014.5
20260507044553 59 225 7.0 12.2 0.00 0.00 0.00 48 1014.5
20260507043050 60 261 5.2 11.3 0.00 0.00 0.00 47 1014.6
20260507041548 61 256 7.0 12.2 0.00 0.00 0.00 45 1014.4
20260507040046 61 271 7.0 18.2 0.00 0.00 0.00 45 1014.1
20260507034545 62 267 13.9 20.0 0.00 0.00 0.00 42 1013.8
20260507033046 60 220 3.5 5.2 0.00 0.00 0.00 49 1014.0
20260507031544 61 201 3.5 10.4 0.00 0.00 0.00 49 1014.1
20260507030044 61 239 7.8 12.2 0.00 0.00 0.00 47 1013.9
20260507024542 62 267 7.0 12.2 0.00 0.00 0.00 47 1013.7
20260507023041 63 250 7.0 15.6 0.00 0.00 0.00 45 1013.6
20260507021540 64 256 14.8 21.7 0.00 0.00 0.00 42 1013.4
20260507020043 64 260 12.2 18.2 0.00 0.00 0.00 42 1013.2
20260507014547 65 241 12.2 26.1 0.00 0.00 0.00 42 1013.1
20260507013049 65 240 13.0 20.0 0.00 0.00 0.00 41 1013.0
20260507011538 66 254 12.2 20.0 0.00 0.00 0.00 40 1013.2
20260507010050 66 265 14.8 20.9 0.00 0.00 0.00 41 1013.0
20260507004536 67 256 9.6 20.0 0.00 0.00 0.00 41 1013.3
20260507003036 68 253 13.9 20.9 0.00 0.00 0.00 39 1013.0
20260507001535 68 258 14.8 20.0 0.00 0.00 0.00 39 1012.6
20260507000034 69 242 11.3 20.0 0.00 0.00 0.00 38 1012.6
20260506234537 70 253 13.9 20.9 0.00 0.00 0.00 40 1012.5
20260506233052 69 255 13.0 20.0 0.00 0.00 0.00 40 1012.5
20260506231533 70 270 12.2 19.1 0.00 0.00 0.00 38 1012.5
20260506230029 71 271 13.0 18.2 0.00 0.00 0.00 38 1012.4
20260506224530 69 248 11.3 18.2 0.00 0.00 0.00 43 1012.6
20260506223029 70 254 11.3 20.9 0.00 0.00 0.00 43 1012.7
20260506221528 71 265 13.9 19.1 0.00 0.00 0.00 39 1012.6
20260506220029 72 258 13.9 19.1 0.00 0.00 0.00 41 1012.6
20260506214526 73 270 13.9 20.0 0.00 0.00 0.00 39 1012.9
20260506213026 73 264 13.0 22.6 0.00 0.00 0.00 41 1012.8
20260506211527 73 251 14.8 20.9 0.00 0.00 0.00 45 1012.7
20260506210031 72 268 13.9 21.7 0.00 0.00 0.00 49 1012.7
20260506204521 72 261 13.9 17.4 0.00 0.00 0.00 49 1012.7
20260506203020 72 253 10.4 20.0 0.00 0.00 0.00 52 1012.7
20260506201519 72 264 11.3 20.0 0.00 0.00 0.00 49 1012.7
20260506200033 73 259 9.6 17.4 0.00 0.00 0.00 47 1012.7
20260506194517 73 264 7.8 13.9 0.00 0.00 0.00 46 1012.6
20260506193013 72 249 6.1 11.3 0.00 0.00 0.00 50 1012.8
20260506191510 71 241 5.2 13.9 0.00 0.00 0.00 50 1013.2
20260506190007 70 234 5.2 13.0 0.00 0.00 0.00 49 1013.5
20260506184506 69 266 8.7 15.6 0.00 0.00 0.00 50 1013.7
20260506183005 68 270 11.3 15.6 0.00 0.00 0.00 51 1013.7
20260506181557 66 241 7.8 13.0 0.00 0.00 0.00 58 1013.8
20260506180057 66 284 8.7 13.0 0.00 0.00 0.00 60 1014.0
20260506174555 66 281 8.7 15.6 0.00 0.00 0.00 62 1013.9
20260506173108 66 270 9.6 13.9 0.00 0.00 0.00 57 1013.7
20260506171557 65 269 7.0 12.2 0.00 0.00 0.00 62 1013.9
20260506170100 65 254 7.8 12.2 0.00 0.00 0.00 60 1013.8
20260506164609 65 246 7.8 11.3 0.00 0.00 0.00 59 1013.7
20260506163047 64 263 4.3 9.6 0.00 0.00 0.00 63 1013.6
20260506161548 64 261 6.1 11.3 0.00 0.00 0.00 61 1013.8
20260506160050 63 267 7.0 10.4 0.00 0.00 0.00 59 1013.8